This demonstration page uses our WeatherBlox Daily Observations layout. Learn more.

Left ArrowRight Arrow

Hourly Observations for April 25, 2021

Temp ( °F °C ) Dew Point ( °F °C ) Humidity (%) Winds ( mph kmh ) Pressure ( in mb ) Visibility ( mi km ) Precip ( " mm )
12:32 am 00:32 Cloudy 37 2.8 35 1.7 93 93 ENE 12 19 29.83 1010 10 16 0.00 0.00
12:53 am 00:53 Cloudy 37 2.8 35 1.7 93 93 E 12 19 29.80 1009 9 14 0.00 0.00
1:53 am 01:53 Cloudy 37 2.8 35 1.7 93 93 E 13 20 29.80 1009 10 16 0.00 0.00
2:48 am 02:48 Cloudy 37 3 34 1 87 87 E 13 20 29.80 1009 10 16 0.02 0.51
2:53 am 02:53 Cloudy 37 2.8 35 1.7 93 93 E 13 20 29.78 1008 10 16 0.02 0.51
3:07 am 03:07 Cloudy 37 2.8 35 1.7 93 93 E 13 20 29.80 1009 10 16 0.00 0.00
3:41 am 03:41 Cloudy with Light Rain 37 2.8 34 1.1 89 89 E 14 22 29.79 1009 8 13 0.00 0.00
3:53 am 03:53 Cloudy 36 2.2 34 1.1 93 93 E 13 20 29.77 1008 10 16 0.00 0.00
4:35 am 04:35 Cloudy with Light Rain 35 1.7 33 0.6 93 93 E 14 22 29.80 1009 10 16 0.01 0.25
4:53 am 04:53 Cloudy with Light Rain 35 1.7 33 0.6 93 93 E 14 22 29.77 1008 8 13 0.02 0.51
5:53 am 05:53 Cloudy 34 1.1 33 0.6 97 97 E 13 20 29.77 1008 9 14 0.02 0.51
6:44 am 06:44 Cloudy 35 1.7 33 0.6 93 93 E 13 20 29.79 1009 10 16 0.00 0.00
6:53 am 06:53 Cloudy 35 1.7 33 0.6 93 93 E 13 20 29.76 1008 9 14 0.00 0.00
7:53 am 07:53 Cloudy 36 2.2 33 0.6 89 89 E 15 24 29.75 1008 10 16 0.00 0.00
8:53 am 08:53 Cloudy 36 2.2 32 0 86 86 E 16 26 29.75 1008 10 16 0.00 0.00
9:53 am 09:53 Cloudy 37 2.8 31 -0.6 79 79 E 12 19 29.75 1007 10 16 0.00 0.00
10:53 am 10:53 Cloudy 38 3.3 31 -0.6 76 76 E 10 17 29.75 1008 10 16 0.00 0.00
11:29 am 11:29 Cloudy with Light Rain 38 3.3 33 0.6 83 83 ENE 12 19 29.77 1008 8 13 0.01 0.25
11:53 am 11:53 Cloudy 39 3.9 34 1.1 82 82 ENE 9 15 29.75 1008 10 16 0.01 0.25
12:19 pm 12:19 Cloudy 39 3.9 35 1.7 86 86 ENE 8 13 29.76 1008 10 16 0.00 0.00
12:53 pm 12:53 Cloudy 40 4.4 36 2.2 86 86 NE 9 15 29.74 1007 10 16 0.00 0.00
1:09 pm 13:09 Cloudy 40 4.4 36 2.2 86 86 ENE 6 9 29.74 1007 10 16 0.00 0.00
1:53 pm 13:53 Cloudy 41 5 37 2.8 86 86 NNE 6 9 29.73 1007 10 16 0.00 0.00
2:53 pm 14:53 Cloudy 42 5.6 36 2.2 79 79 NNW 6 9 29.73 1007 10 16 0.00 0.00
3:24 pm 15:24 Cloudy 43 6 36 2 76 76 NW 5 7 29.72 1006 10 16 0.00 0.00
3:53 pm 15:53 Cloudy 43 6.1 36 2.2 76 76 NW 6 9 29.72 1007 10 16 0.00 0.00
4:53 pm 16:53 Cloudy 44 6.7 36 2.2 73 73 NNW 6 9 29.72 1006 10 16 0.00 0.00
5:53 pm 17:53 Mostly Cloudy 45 7.2 35 1.7 68 68 NW 7 11 29.71 1006 10 16 0.00 0.00
6:42 pm 18:42 Cloudy 44 6.7 36 2.2 73 73 NNE 8 13 29.70 1006 10 16 0.00 0.00
6:53 pm 18:53 Cloudy 43 6.1 35 1.7 74 74 NNE 6 9 29.72 1006 10 16 0.00 0.00
7:53 pm 19:53 Cloudy 42 5.6 34 1.1 73 73 NE 7 11 29.71 1006 10 16 0.00 0.00
8:53 pm 20:53 Cloudy 42 5.6 35 1.7 76 76 SE 3 6 29.72 1007 10 16 0.00 0.00
9:53 pm 21:53 Partly Cloudy 37 2.8 33 0.6 86 86 NE 7 11 29.73 1007 10 16 0.00 0.00
10:53 pm 22:53 Clear 35 1.7 32 0 89 89 E 3 6 29.73 1007 10 16 0.00 0.00
11:53 pm 23:53 Mostly Clear 36 2.2 33 0.6 89 89 E 3 6 29.72 1007 10 16 0.00 0.00

Powered by AerisWeather